BEESAT-4 (41619 NORAD) Tracking and Keplerian Element Data

This shows tracking and keplerian element data for the satellite.

Feedback or suggestion? Click here.




ElementValue
Catalog41619
NameBEESAT-4
Epoch Orbit22835
Epoch Day293.90204692
Epoch Year2020
RAAN350.4181
Inclination97.3056
Eccentricity0.0012713
Argument of Perigee99.9605
Mean Anonmoly260.3068
Mean Motion15.24335867
Decay Rate1.771E-05
L11 41619U 16040W 20293.90204692 .00001771 00000-0 75109-4 0 9992
L22 41619 97.3056 350.4181 0012713 99.9605 260.3068 15.24335867228356

Live tracking and technical data element details for BEESAT-4 (NORAD 41619). BEESAT-4 can be tracked NOW for your location showing map with azimuth and elevation plus other details from your city location.

Track the satellite on the map from your city or location and see movement details for azimuth, elevation, latitude, longitude, range, height, and movement on the map or in text.







IsCatalogInMostPopularTable: catalog: 41619, numindb: 426
Update: records affected: 1



GetName: 41619 BEESAT-4

Hit Count: updated at: Tue, 20 Oct 2020 17:13:19 GMT